GW1093 Weather Reports


time (UTC)temp
C
wind
direction
speed
KPH
gust
KPH
rain 1hr
cm
rain 24hr
cm
rain mn
cm
humidity
%
barometer
mb
20260906124539 21 0 0.0 1.6 0.00 0.00 0.00 91 1018.5
20260906124018 20 0 0.0 0.0 0.00 0.00 0.00 92 1018.3
20260906123518 20 0 0.0 1.6 0.00 0.00 0.00 92 1018.4
20260906123040 20 0 0.0 1.6 0.00 0.00 0.00 92 1018.2
20260906122520 20 82 0.0 1.6 0.00 0.00 0.00 92 1018.1
20260906122018 20 0 0.0 1.6 0.00 0.00 0.00 92 1018.1
20260906121540 20 0 0.0 1.6 0.00 0.00 0.00 92 1018.1
20260906121024 20 0 0.0 0.0 0.00 0.00 0.00 92 1018.0
20260906120520 20 0 0.0 0.0 0.00 0.00 0.00 92 1017.8
20260906120037 20 0 0.0 0.0 0.00 0.00 0.00 92 1017.7
20260906115520 20 0 0.0 0.0 0.00 0.00 0.00 92 1017.6
20260906115018 20 0 0.0 0.0 0.00 0.00 0.00 91 1017.5
20260906114544 20 0 0.0 0.0 0.00 0.00 0.00 91 1017.6
20260906114015 20 0 0.0 0.0 0.00 0.00 0.00 91 1017.5
20260906113518 20 0 0.0 0.0 0.00 0.00 0.00 91 1017.5
20260906113036 20 0 0.0 0.0 0.00 0.00 0.00 91 1017.4
20260906112517 20 0 0.0 0.0 0.00 0.00 0.00 91 1017.1
20260906112020 20 0 0.0 0.0 0.00 0.00 0.00 91 1017.1
20260906111544 20 0 0.0 0.0 0.00 0.00 0.00 91 1017.1
20260906111020 20 0 0.0 0.0 0.00 0.00 0.00 91 1017.1
20260906110518 20 0 0.0 0.0 0.00 0.00 0.00 91 1017.1
20260906110036 20 0 0.0 0.0 0.00 0.00 0.00 90 1017.1
20260906105520 20 0 0.0 0.0 0.00 0.00 0.00 90 1017.0
20260906105022 20 0 0.0 0.0 0.00 0.00 0.00 90 1016.7
20260906104537 20 0 0.0 0.0 0.00 0.00 0.00 90 1016.7
20260906104019 20 0 0.0 0.0 0.00 0.00 0.00 90 1016.6
20260906103516 20 0 0.0 1.6 0.00 0.00 0.00 90 1016.6
20260906103038 20 0 0.0 1.6 0.00 0.00 0.00 90 1016.7
20260906102519 20 0 0.0 1.6 0.00 0.00 0.00 90 1016.6
20260906102019 20 79 0.0 1.6 0.00 0.00 0.00 91 1016.6
20260906101537 20 0 0.0 1.6 0.00 0.00 0.00 91 1016.7
20260906101020 20 0 0.0 1.6 0.00 0.00 0.00 91 1016.7
20260906100520 21 79 0.0 1.6 0.00 0.00 0.00 90 1016.6
20260906100037 21 0 0.0 1.6 0.00 0.00 0.00 90 1016.5
20260906095520 21 0 0.0 1.6 0.00 0.00 0.00 90 1016.6
20260906095019 21 0 0.0 1.6 0.00 0.00 0.00 90 1016.5
20260906094543 21 0 0.0 1.6 0.00 0.00 0.00 90 1016.5
20260906094020 21 0 0.0 1.6 0.00 0.00 0.00 90 1016.5
20260906093519 21 0 0.0 1.6 0.00 0.00 0.00 90 1016.5
20260906093037 21 0 0.0 1.6 0.00 0.00 0.00 89 1016.5
20260906092520 21 0 0.0 1.6 0.00 0.00 0.00 89 1016.6
20260906092021 21 0 0.0 0.0 0.00 0.00 0.00 89 1016.6
20260906091537 21 0 0.0 1.6 0.00 0.00 0.00 89 1016.5
20260906091018 21 0 0.0 1.6 0.00 0.00 0.00 89 1016.3
20260906090519 21 0 0.0 1.6 0.00 0.00 0.00 89 1016.2
20260906090049 21 0 0.0 1.6 0.00 0.00 0.00 89 1016.3
20260906085517 21 0 0.0 1.6 0.00 0.00 0.00 89 1016.2
20260906085018 21 0 0.0 1.6 0.00 0.00 0.00 89 1016.2
20260906084536 21 0 0.0 1.6 0.00 0.00 0.00 89 1016.2
20260906084021 21 0 0.0 1.6 0.00 0.00 0.00 89 1016.1
20260906083518 21 0 0.0 1.6 0.00 0.00 0.00 89 1016.3
20260906083045 21 0 0.0 0.0 0.00 0.00 0.00 89 1016.2
20260906082520 21 0 0.0 0.0 0.00 0.00 0.00 88 1016.4
20260906082021 21 0 0.0 0.0 0.00 0.00 0.00 88 1016.3
20260906081538 22 0 0.0 0.0 0.00 0.00 0.00 88 1016.4
20260906081021 22 0 0.0 0.0 0.00 0.00 0.00 88 1016.4
20260906080521 22 0 0.0 1.6 0.00 0.00 0.00 88 1016.5
20260906080041 22 0 0.0 1.6 0.00 0.00 0.00 88 1016.6
20260906075520 22 78 0.0 1.6 0.00 0.00 0.00 88 1016.6
20260906075018 22 0 0.0 1.6 0.00 0.00 0.00 88 1016.6
20260906074535 22 72 0.0 1.6 0.00 0.00 0.00 88 1016.6
20260906074016 22 0 0.0 1.6 0.00 0.00 0.00 88 1016.5
20260906073517 22 0 0.0 4.8 0.00 0.00 0.00 88 1016.6
20260906073036 22 0 0.0 4.8 0.00 0.00 0.00 88 1016.6
20260906072518 22 0 0.0 4.8 0.00 0.00 0.00 88 1016.5
20260906072020 22 0 0.0 4.8 0.00 0.00 0.00 88 1016.5
20260906071535 22 0 0.0 4.8 0.00 0.00 0.00 88 1016.5
20260906071024 22 0 0.0 3.2 0.00 0.00 0.00 88 1016.5
20260906070523 22 96 0.0 1.6 0.00 0.00 0.00 88 1016.6
20260906070035 22 0 0.0 3.2 0.00 0.00 0.00 88 1016.5
20260906065520 22 0 0.0 3.2 0.00 0.00 0.00 88 1016.4
20260906065018 22 0 0.0 3.2 0.00 0.00 0.00 88 1016.4
20260906064534 22 0 0.0 3.2 0.00 0.00 0.00 88 1016.3
20260906064017 22 101 0.0 3.2 0.00 0.00 0.00 88 1016.4
20260906063516 22 0 0.0 3.2 0.00 0.00 0.00 88 1016.3
20260906063039 22 0 0.0 3.2 0.00 0.00 0.00 88 1016.4
20260906062525 22 0 0.0 1.6 0.00 0.00 0.00 88 1016.5
20260906062019 22 0 0.0 1.6 0.00 0.00 0.00 88 1016.5
20260906061546 22 94 0.0 1.6 0.00 0.00 0.00 88 1016.5
20260906061020 22 0 0.0 4.8 0.00 0.00 0.00 88 1016.6
20260906060520 22 77 0.0 4.8 0.00 0.00 0.00 87 1016.6
20260906060039 22 0 0.0 3.2 0.00 0.00 0.00 87 1016.6
20260906055520 22 0 0.0 4.8 0.00 0.00 0.00 87 1016.6
20260906055020 22 0 0.0 4.8 0.00 0.00 0.00 87 1016.5
20260906054541 22 0 0.0 3.2 0.00 0.00 0.00 87 1016.5
20260906054016 22 0 0.0 3.2 0.00 0.00 0.00 87 1016.5
20260906053519 22 0 0.0 1.6 0.00 0.00 0.00 87 1016.6
20260906053036 22 0 0.0 1.6 0.00 0.00 0.00 87 1016.4
20260906052520 22 0 0.0 1.6 0.00 0.00 0.00 87 1016.3
20260906052021 22 0 0.0 1.6 0.00 0.00 0.00 87 1016.2
20260906051539 22 0 0.0 4.8 0.00 0.00 0.00 87 1016.2
20260906051021 22 84 0.0 4.8 0.00 0.00 0.00 87 1016.2
20260906050525 22 0 0.0 4.8 0.00 0.00 0.00 87 1016.2
20260906050039 22 0 0.0 3.2 0.00 0.00 0.00 87 1016.1
20260906045521 22 0 0.0 3.2 0.00 0.00 0.00 87 1016.2
20260906045019 22 0 0.0 3.2 0.00 0.00 0.00 87 1016.1
20260906044535 22 0 0.0 3.2 0.00 0.00 0.00 87 1015.9
20260906044020 22 0 0.0 3.2 0.00 0.00 0.00 87 1015.8
20260906043521 22 0 0.0 3.2 0.00 0.00 0.00 87 1015.7
20260906043037 22 0 0.0 9.7 0.00 0.00 0.00 87 1015.7
20260906042521 22 0 0.0 9.7 0.00 0.00 0.00 87 1015.5
20260906042020 22 191 0.0 9.7 0.00 0.00 0.00 86 1015.3
20260906041539 22 0 0.0 6.4 0.00 0.00 0.00 86 1015.4
20260906041021 22 0 0.0 9.7 0.00 0.00 0.00 86 1015.4
20260906040521 22 85 0.0 9.7 0.00 0.00 0.00 86 1015.4
20260906040037 22 0 0.0 4.8 0.00 0.00 0.00 86 1015.4
20260906035518 22 101 0.0 12.9 0.00 0.00 0.00 86 1015.5
20260906035018 22 96 0.0 12.9 0.00 0.00 0.00 86 1015.5
20260906034553 22 77 1.6 6.4 0.00 0.00 0.00 86 1015.4
20260906034020 22 0 0.0 6.4 0.00 0.00 0.00 86 1015.4
20260906033517 22 0 0.0 6.4 0.00 0.00 0.00 86 1015.3
20260906033040 22 0 0.0 8.0 0.00 0.00 0.00 85 1015.3
20260906032520 22 0 0.0 8.0 0.00 0.00 0.00 85 1015.4
20260906032018 22 0 0.0 4.8 0.00 0.00 0.00 85 1015.5
20260906031537 22 64 0.0 6.4 0.00 0.00 0.00 85 1015.5
20260906031020 22 55 0.0 6.4 0.00 0.00 0.00 85 1015.5
20260906030521 22 94 0.0 4.8 0.00 0.00 0.00 85 1015.3
20260906030042 22 0 0.0 8.0 0.00 0.00 0.00 85 1015.3
20260906025522 22 0 0.0 8.0 0.00 0.00 0.00 85 1015.3
20260906025021 22 56 0.0 6.4 0.00 0.00 0.00 85 1015.4
20260906024539 22 65 0.0 8.0 0.00 0.00 0.00 85 1015.4
20260906024022 22 0 0.0 8.0 0.00 0.00 0.00 85 1015.4
20260906023520 22 88 1.6 8.0 0.00 0.00 0.00 85 1015.3
20260906023036 22 82 0.0 4.8 0.00 0.00 0.00 85 1015.3
20260906022518 22 73 0.0 4.8 0.00 0.00 0.00 85 1015.3
20260906022020 22 134 0.0 4.8 0.00 0.00 0.00 85 1015.2
20260906021541 22 72 0.0 6.4 0.00 0.00 0.00 85 1015.2
20260906021017 22 53 0.0 6.4 0.00 0.00 0.00 85 1015.3
20260906020518 22 44 0.0 6.4 0.00 0.00 0.00 86 1015.4
20260906020040 22 72 1.6 6.4 0.00 0.00 0.00 86 1015.5
20260906015520 22 96 0.0 6.4 0.00 0.00 0.00 86 1015.3
20260906015020 22 0 0.0 6.4 0.00 0.00 0.00 86 1015.5
20260906014538 22 0 0.0 6.4 0.00 0.00 0.00 86 1015.5
20260906014020 22 86 0.0 4.8 0.00 0.00 0.00 86 1015.5
20260906013519 22 0 0.0 4.8 0.00 0.00 0.00 86 1015.3
20260906013037 22 0 0.0 6.4 0.00 0.00 0.00 86 1015.5
20260906012519 22 0 0.0 6.4 0.00 0.00 0.00 86 1015.6
20260906012016 22 0 0.0 11.3 0.00 0.00 0.00 86 1015.5
20260906011538 22 0 1.6 11.3 0.00 0.00 0.00 86 1015.5
20260906011021 22 57 0.0 4.8 0.00 0.00 0.00 86 1015.4
20260906010519 22 0 0.0 4.8 0.00 0.00 0.00 86 1015.4
20260906010050 22 0 0.0 4.8 0.00 0.00 0.00 86 1015.2
20260906005520 22 72 0.0 9.7 0.00 0.00 0.00 86 1015.1
20260906005020 22 0 0.0 11.3 0.00 0.00 0.00 86 1015.0
20260906004541 22 97 1.6 11.3 0.00 0.00 0.00 85 1015.0
20260906004026 22 52 0.0 11.3 0.00 0.00 0.00 85 1014.9
20260906003520 22 74 1.6 9.7 0.00 0.00 0.00 85 1014.8
20260906003037 22 0 0.0 9.7 0.00 0.00 0.00 85 1015.0
20260906002516 22 89 0.0 9.7 0.00 0.00 0.00 85 1014.9
20260906002019 22 36 1.6 9.7 0.00 0.00 0.00 85 1014.8
20260906001551 22 72 0.0 8.0 0.00 0.00 0.00 85 1014.8
20260906001021 22 0 1.6 8.0 0.00 0.00 0.00 85 1014.8
20260906000520 22 65 0.0 11.3 0.00 0.00 0.00 85 1014.9
20260906000038 22 0 0.0 11.3 0.00 0.00 0.00 85 1014.9
20260905235520 22 0 0.0 8.0 0.00 0.00 0.00 84 1014.8
20260905235020 23 56 0.0 11.3 0.00 0.00 0.00 84 1014.8
20260905234538 23 78 1.6 11.3 0.00 0.00 0.00 83 1014.7
20260905234019 23 0 0.0 6.4 0.00 0.00 0.00 82 1014.9
20260905233520 23 200 0.0 6.4 0.00 0.00 0.00 83 1014.7
20260905233035 23 0 0.0 6.4 0.00 0.00 0.00 82 1014.7
20260905232525 24 0 0.0 11.3 0.00 0.00 0.00 82 1014.5
20260905232022 24 40 1.6 14.5 0.00 0.00 0.00 81 1014.5
20260905231537 24 103 1.6 14.5 0.00 0.00 0.00 81 1014.4
20260905231024 25 193 1.6 14.5 0.00 0.00 0.00 80 1014.3
20260905230521 25 0 0.0 4.8 0.00 0.00 0.00 80 1014.4
20260905230041 25 0 0.0 9.7 0.00 0.00 0.00 79 1014.3
20260905225525 25 0 0.0 14.5 0.00 0.00 0.00 79 1014.3
20260905225019 25 0 1.6 14.5 0.00 0.00 0.00 78 1014.3
20260905224534 26 0 0.0 9.7 0.00 0.00 0.00 78 1014.1
20260905224018 26 0 0.0 11.3 0.00 0.00 0.00 78 1014.1
20260905223519 26 0 1.6 11.3 0.00 0.00 0.00 77 1014.0
20260905223049 26 85 1.6 9.7 0.00 0.00 0.00 77 1013.9
20260905222523 26 41 0.0 8.0 0.00 0.00 0.00 77 1013.9
20260905222020 26 40 0.0 8.0 0.00 0.00 0.00 77 1014.1
20260905221542 26 70 0.0 11.3 0.00 0.00 0.00 76 1014.3
20260905221020 26 0 0.0 11.3 0.00 0.00 0.00 75 1014.4
20260905220519 26 0 1.6 11.3 0.00 0.00 0.00 75 1014.3
20260905220037 26 124 0.0 6.4 0.00 0.00 0.00 76 1014.2
20260905215516 26 0 0.0 12.9 0.00 0.00 0.00 76 1014.2
20260905215019 26 0 1.6 12.9 0.00 0.00 0.00 75 1014.1
20260905214543 26 89 0.0 6.4 0.00 0.00 0.00 76 1014.1
20260905214020 26 93 0.0 6.4 0.00 0.00 0.00 75 1014.1
20260905213518 26 89 1.6 4.8 0.00 0.00 0.00 76 1014.2
20260905213038 26 41 1.6 6.4 0.00 0.00 0.00 76 1014.2
20260905212524 26 0 1.6 6.4 0.00 0.00 0.00 76 1014.1
20260905212020 26 82 0.0 4.8 0.00 0.00 0.00 76 1014.1
20260905211536 26 0 0.0 6.4 0.00 0.00 0.00 77 1014.1
20260905211018 26 0 0.0 8.0 0.00 0.00 0.00 78 1014.2
20260905210520 26 77 1.6 8.0 0.00 0.00 0.00 78 1014.2
20260905210045 25 117 0.0 6.4 0.00 0.00 0.00 80 1014.2
20260905205520 25 0 0.0 6.4 0.00 0.00 0.00 79 1014.3
20260905205019 25 75 1.6 6.4 0.00 0.00 0.00 79 1014.3
20260905204536 26 82 0.0 6.4 0.00 0.00 0.00 78 1014.4
20260905204021 26 0 0.0 9.7 0.00 0.00 0.00 79 1014.2
20260905203524 26 73 1.6 9.7 0.00 0.00 0.00 78 1014.3
20260905203037 26 0 1.6 6.4 0.00 0.00 0.00 78 1014.3
20260905202520 26 0 0.0 6.4 0.00 0.00 0.00 78 1014.3
20260905202020 26 48 0.0 6.4 0.00 0.00 0.00 78 1014.3
20260905201536 26 0 1.6 9.7 0.00 0.00 0.00 78 1014.4
20260905201017 26 0 0.0 9.7 0.00 0.00 0.00 78 1014.4
20260905200520 26 68 0.0 4.8 0.00 0.00 0.00 78 1014.5
20260905200104 26 0 0.0 9.7 0.00 0.00 0.00 78 1014.5
20260905195519 26 0 0.0 9.7 0.00 0.00 0.00 78 1014.5
20260905195015 26 0 0.0 6.4 0.00 0.00 0.00 78 1014.3
20260905194538 26 95 0.0 6.4 0.00 0.00 0.00 77 1014.4
20260905194021 26 0 0.0 9.7 0.00 0.00 0.00 78 1014.3
20260905193521 26 0 0.0 9.7 0.00 0.00 0.00 77 1014.3
20260905193040 26 98 0.0 6.4 0.00 0.00 0.00 77 1014.5
20260905192520 26 44 0.0 11.3 0.00 0.00 0.00 77 1014.5
20260905192021 27 0 0.0 11.3 0.00 0.00 0.00 77 1014.4
20260905191535 27 53 1.6 9.7 0.00 0.00 0.00 76 1014.6
20260905191020 27 0 0.0 8.0 0.00 0.00 0.00 76 1014.5
20260905190518 27 0 0.0 9.7 0.00 0.00 0.00 76 1014.7
20260905190038 27 120 1.6 9.7 0.00 0.00 0.00 75 1014.7
20260905185516 27 0 0.0 6.4 0.00 0.00 0.00 75 1014.5
20260905185018 27 0 1.6 8.0 0.00 0.00 0.00 74 1014.6
20260905184549 27 0 0.0 8.0 0.00 0.00 0.00 74 1014.6
20260905184018 28 89 1.6 8.0 0.00 0.00 0.00 74 1014.6
20260905183521 28 44 1.6 8.0 0.00 0.00 0.00 74 1014.7
20260905183059 28 0 0.0 6.4 0.00 0.00 0.00 74 1014.8
20260905182521 28 0 0.0 6.4 0.00 0.00 0.00 74 1014.6
20260905182023 28 68 0.0 6.4 0.00 0.00 0.00 74 1014.7
20260905181544 28 40 0.0 9.7 0.00 0.00 0.00 73 1014.7
20260905181019 28 54 0.0 9.7 0.00 0.00 0.00 74 1014.7
20260905180519 28 0 0.0 6.4 0.00 0.00 0.00 73 1014.4
20260905180041 28 74 0.0 6.4 0.00 0.00 0.00 74 1014.5
20260905175521 28 0 0.0 6.4 0.00 0.00 0.00 74 1014.4
20260905175019 28 87 1.6 6.4 0.00 0.00 0.00 74 1014.3
20260905174537 28 83 0.0 4.8 0.00 0.00 0.00 74 1014.3
20260905174020 28 51 0.0 8.0 0.00 0.00 0.00 74 1014.4
20260905173520 28 91 1.6 8.0 0.00 0.00 0.00 74 1014.4
20260905173044 28 92 1.6 8.0 0.00 0.00 0.00 74 1014.2
20260905172520 28 0 0.0 3.2 0.00 0.00 0.00 74 1014.3
20260905172021 28 0 0.0 3.2 0.00 0.00 0.00 76 1014.3
20260905171537 28 88 0.0 8.0 0.00 0.00 0.00 75 1014.3
20260905171021 28 0 0.0 8.0 0.00 0.00 0.00 74 1014.4
20260905170522 28 37 1.6 8.0 0.00 0.00 0.00 74 1014.4
20260905170036 28 82 0.0 9.7 0.00 0.00 0.00 74 1014.4
20260905165516 28 82 0.0 11.3 0.00 0.00 0.00 74 1014.4
20260905165020 28 76 1.6 11.3 0.00 0.00 0.00 75 1014.5
20260905164538 28 63 3.2 9.7 0.00 0.00 0.00 74 1014.5
20260905164025 28 65 1.6 8.0 0.00 0.00 0.00 75 1014.6
20260905163524 28 0 0.0 6.4 0.00 0.00 0.00 75 1014.5
20260905163038 28 0 0.0 6.4 0.00 0.00 0.00 75 1014.4
20260905162521 28 93 0.0 4.8 0.00 0.00 0.00 76 1014.3
20260905162020 28 0 1.6 6.4 0.00 0.00 0.00 74 1014.5
20260905161538 28 9 0.0 6.4 0.00 0.00 0.00 76 1014.5
20260905161023 28 79 0.0 8.0 0.00 0.00 0.00 76 1014.5
20260905160519 27 79 1.6 8.0 0.00 0.00 0.00 77 1014.5
20260905160033 27 0 0.0 8.0 0.00 0.00 0.00 77 1014.5
20260905155519 27 0 1.6 6.4 0.00 0.00 0.00 78 1014.4
20260905155020 27 0 0.0 6.4 0.00 0.00 0.00 79 1014.4
20260905154537 27 73 0.0 6.4 0.00 0.00 0.00 79 1014.4
20260905154021 27 85 0.0 3.2 0.00 0.00 0.00 79 1014.4
20260905153521 26 72 0.0 6.4 0.00 0.00 0.00 79 1014.4
20260905153038 26 69 1.6 6.4 0.00 0.00 0.00 79 1014.3
20260905152523 26 65 0.0 6.4 0.00 0.00 0.00 80 1014.2
20260905152020 26 66 0.0 6.4 0.00 0.00 0.00 81 1014.1
20260905151539 26 70 1.6 9.7 0.00 0.00 0.00 81 1014.1
20260905151021 26 48 0.0 9.7 0.00 0.00 0.00 81 1014.0
20260905150519 26 60 1.6 9.7 0.00 0.00 0.00 81 1013.9
20260905150038 26 0 0.0 3.2 0.00 0.00 0.00 82 1013.9
20260905145518 26 0 0.0 8.0 0.00 0.00 0.00 82 1013.9
20260905145020 26 67 1.6 8.0 0.00 0.00 0.00 83 1013.9
20260905144543 26 75 0.0 11.3 0.00 0.00 0.00 84 1013.9
20260905144021 25 0 1.6 11.3 0.00 0.00 0.00 84 1013.8
20260905143517 25 0 0.0 6.4 0.00 0.00 0.00 85 1013.8
20260905143038 25 49 0.0 6.4 0.00 0.00 0.00 86 1013.8
20260905142525 25 109 0.0 6.4 0.00 0.00 0.00 86 1013.7
20260905142019 25 80 1.6 6.4 0.00 0.00 0.00 87 1013.6
20260905141537 25 78 0.0 8.0 0.00 0.00 0.00 88 1013.6
20260905141025 24 0 1.6 8.0 0.00 0.00 0.00 88 1013.5
20260905140519 24 37 1.6 8.0 0.00 0.00 0.00 89 1013.4
20260905140035 24 113 0.0 4.8 0.00 0.00 0.00 90 1013.4
20260905135518 23 0 1.6 8.0 0.00 0.00 0.00 90 1013.5
20260905135021 23 88 1.6 8.0 0.00 0.00 0.00 90 1013.5
20260905134539 23 54 1.6 6.4 0.00 0.00 0.00 90 1013.4
20260905134020 23 98 0.0 8.0 0.00 0.00 0.00 90 1013.6
20260905133521 23 0 0.0 8.0 0.00 0.00 0.00 91 1013.7
20260905133037 23 58 1.6 8.0 0.00 0.00 0.00 91 1013.8
20260905132517 23 88 1.6 8.0 0.00 0.00 0.00 91 1013.9
20260905132020 23 359 0.0 8.0 0.00 0.00 0.00 91 1013.9
20260905131550 23 94 0.0 6.4 0.00 0.00 0.00 91 1013.6
20260905131025 23 0 0.0 6.4 0.00 0.00 0.00 91 1013.5
20260905130519 23 81 1.6 4.8 0.00 0.00 0.00 91 1013.3
20260905130035 23 0 0.0 6.4 0.00 0.00 0.00 91 1013.2
20260905125522 23 0 0.0 6.4 0.00 0.00 0.00 90 1013.1
20260905125023 23 0 0.0 6.4 0.00 0.00 0.00 91 1013.1